TimeCDT,TemperatureF,Dew PointF,Humidity,Sea Level PressureIn,VisibilityMPH,Wind Direction,Wind SpeedMPH,Gust SpeedMPH,PrecipitationIn,Events,Conditions,WindDirDegrees,DateUTC
12:55 AM,71.2,70.3,97,29.88,10.0,Calm,Calm,-,0.00,,Light Drizzle,0,2012-09-30 05:55:00
12:56 AM,71.6,69.8,94,29.88,10.0,Calm,Calm,-,N/A,,Clear,0,2012-09-30 05:56:00
1:23 AM,69.8,69.8,100,29.88,2.5,SE,3.5,-,N/A,,Clear,130,2012-09-30 06:23:00
1:26 AM,69.8,69.8,100,29.88,1.8,Calm,Calm,-,N/A,,Clear,0,2012-09-30 06:26:00
1:31 AM,69.8,69.8,100,29.88,2.0,Calm,Calm,-,N/A,,Partly Cloudy,0,2012-09-30 06:31:00
1:35 AM,69.8,69.8,100,29.88,3.0,East,3.5,-,N/A,,Scattered Clouds,90,2012-09-30 06:35:00
1:55 AM,70.3,69.8,98,29.88,10.0,Calm,Calm,-,N/A,,Mostly Cloudy,0,2012-09-30 06:55:00
2:20 AM,69.8,69.8,100,29.88,10.0,Calm,Calm,-,N/A,,Light Drizzle,0,2012-09-30 07:20:00
2:55 AM,70.7,70.2,98,29.87,9.0,Calm,Calm,-,0.01,,Partly Cloudy,0,2012-09-30 07:55:00
3:48 AM,69.8,69.8,100,29.86,10.0,Calm,Calm,-,N/A,,Partly Cloudy,0,2012-09-30 08:48:00
3:52 AM,69.8,69.8,100,29.86,10.0,Calm,Calm,-,N/A,,Light Drizzle,0,2012-09-30 08:52:00
3:55 AM,70.5,70.0,98,29.86,10.0,Calm,Calm,-,0.00,,Light Drizzle,0,2012-09-30 08:55:00
4:40 AM,69.8,69.8,100,29.84,8.0,Calm,Calm,-,N/A,Rain,Light Rain,0,2012-09-30 09:40:00
4:54 AM,69.8,69.8,100,29.84,10.0,NE,4.6,-,N/A,,Mostly Cloudy,40,2012-09-30 09:54:00
4:55 AM,70.7,70.2,98,29.84,10.0,NNE,4.6,-,0.01,,Mostly Cloudy,30,2012-09-30 09:55:00
5:32 AM,69.8,69.8,100,29.84,10.0,Calm,Calm,-,N/A,,Light Drizzle,0,2012-09-30 10:32:00
5:42 AM,69.8,69.8,100,29.84,10.0,Calm,Calm,-,N/A,,Mostly Cloudy,0,2012-09-30 10:42:00
5:55 AM,70.2,69.6,98,29.84,9.0,Calm,Calm,-,0.00,,Mostly Cloudy,0,2012-09-30 10:55:00
6:14 AM,69.8,69.8,100,29.84,7.0,Calm,Calm,-,N/A,,Scattered Clouds,0,2012-09-30 11:14:00
6:23 AM,69.8,69.8,100,29.84,7.0,Calm,Calm,-,N/A,,Mostly Cloudy,0,2012-09-30 11:23:00
6:26 AM,69.8,69.8,100,29.84,7.0,Calm,Calm,-,N/A,,Light Drizzle,0,2012-09-30 11:26:00
6:47 AM,69.8,69.8,100,29.84,7.0,Calm,Calm,-,N/A,,Overcast,0,2012-09-30 11:47:00
6:55 AM,70.2,69.8,99,29.84,8.0,Calm,Calm,-,0.00,,Overcast,0,2012-09-30 11:55:00
7:34 AM,69.8,69.8,100,29.85,5.0,NE,4.6,-,N/A,,Mostly Cloudy,50,2012-09-30 12:34:00
7:55 AM,70.7,70.3,99,29.85,7.0,Calm,Calm,-,N/A,,Mostly Cloudy,0,2012-09-30 12:55:00
8:55 AM,71.8,70.9,97,29.86,10.0,East,3.5,-,N/A,,Mostly Cloudy,100,2012-09-30 13:55:00
9:34 AM,73.4,71.6,94,29.86,10.0,ESE,4.6,-,N/A,,Mostly Cloudy,120,2012-09-30 14:34:00
9:36 AM,73.4,71.6,94,29.86,10.0,East,4.6,-,N/A,,Mostly Cloudy,100,2012-09-30 14:36:00
9:50 AM,73.4,71.6,94,29.86,10.0,ESE,6.9,-,N/A,,Overcast,110,2012-09-30 14:50:00
9:55 AM,74.1,70.7,89,29.86,10.0,East,6.9,-,N/A,,Overcast,100,2012-09-30 14:55:00
10:02 AM,73.4,71.6,94,29.86,10.0,East,5.8,-,N/A,,Overcast,100,2012-09-30 15:02:00
10:36 AM,75.2,71.6,89,29.85,10.0,ESE,6.9,-,N/A,,Overcast,120,2012-09-30 15:36:00
10:38 AM,75.2,71.6,89,29.85,10.0,East,8.1,-,N/A,,Overcast,100,2012-09-30 15:38:00
10:55 AM,76.8,72.0,85,29.85,10.0,East,5.8,-,N/A,,Overcast,100,2012-09-30 15:55:00
10:57 AM,77.0,71.6,83,29.85,10.0,East,5.8,-,N/A,,Overcast,100,2012-09-30 15:57:00
11:40 AM,78.8,71.6,78,29.84,10.0,SSE,6.9,-,N/A,,Overcast,150,2012-09-30 16:40:00
11:46 AM,78.8,71.6,78,29.84,10.0,ESE,9.2,-,N/A,,Overcast,110,2012-09-30 16:46:00
11:55 AM,78.8,72.0,79,29.84,10.0,ESE,8.1,-,N/A,,Overcast,120,2012-09-30 16:55:00
11:59 AM,78.8,71.6,78,29.84,10.0,ESE,6.9,-,N/A,,Overcast,110,2012-09-30 16:59:00
12:55 PM,80.2,72.7,78,29.81,10.0,Variable,5.8,-,N/A,,Overcast,0,2012-09-30 17:55:00
1:07 PM,80.6,73.4,79,29.81,10.0,SE,6.9,-,N/A,,Overcast,130,2012-09-30 18:07:00
1:38 PM,78.8,71.6,78,29.81,9.0,South,24.2,27.6,N/A,,Light Drizzle,180,2012-09-30 18:38:00
1:41 PM,77.0,71.6,83,29.82,2.0,South,19.6,27.6,N/A,Rain,Heavy Rain,180,2012-09-30 18:41:00
1:42 PM,77.0,69.8,78,29.82,1.8,South,16.1,27.6,N/A,Rain,Heavy Rain,180,2012-09-30 18:42:00
1:44 PM,73.4,69.8,88,29.82,1.2,South,13.8,27.6,N/A,Rain,Heavy Rain,180,2012-09-30 18:44:00
1:46 PM,73.4,69.8,88,29.81,1.0,South,12.7,27.6,N/A,Rain,Heavy Rain,170,2012-09-30 18:46:00
1:51 PM,71.6,69.8,94,29.81,1.2,SSE,9.2,18.4,N/A,Rain,Heavy Rain,150,2012-09-30 18:51:00
1:55 PM,70.9,69.3,95,29.81,1.2,SSE,8.1,-,0.33,Rain,Heavy Rain,150,2012-09-30 18:55:00
1:56 PM,71.6,69.8,94,29.80,1.5,SE,6.9,-,N/A,Rain,Heavy Rain,140,2012-09-30 18:56:00
2:00 PM,71.6,69.8,94,29.80,2.0,SE,4.6,-,N/A,Rain,Light Rain,140,2012-09-30 19:00:00
2:02 PM,71.6,69.8,94,29.80,3.0,SSE,4.6,-,N/A,Rain,Light Rain,150,2012-09-30 19:02:00
2:43 PM,71.6,69.8,94,29.77,10.0,East,3.5,-,N/A,,Mostly Cloudy,80,2012-09-30 19:43:00
2:55 PM,71.4,70.2,96,29.77,10.0,Calm,Calm,-,0.06,,Scattered Clouds,0,2012-09-30 19:55:00
3:55 PM,73.2,70.9,92,29.76,10.0,East,3.5,-,N/A,,Mostly Cloudy,100,2012-09-30 20:55:00
4:55 PM,73.4,72.1,96,29.75,10.0,ENE,3.5,-,N/A,,Overcast,70,2012-09-30 21:55:00
5:04 PM,73.4,71.6,94,29.75,10.0,ENE,4.6,-,N/A,Rain,Light Rain,70,2012-09-30 22:04:00
5:55 PM,73.0,72.1,97,29.75,4.0,East,4.6,-,0.08,Rain,Light Rain,80,2012-09-30 22:55:00
6:26 PM,73.4,71.6,94,29.74,5.0,SE,4.6,-,N/A,Rain,Light Rain,130,2012-09-30 23:26:00
6:28 PM,73.4,71.6,94,29.74,5.0,SE,3.5,-,N/A,Rain,Light Rain,130,2012-09-30 23:28:00
6:30 PM,73.4,71.6,94,29.74,5.0,Calm,Calm,-,N/A,Rain,Light Rain,0,2012-09-30 23:30:00
6:38 PM,73.4,71.6,94,29.74,10.0,SE,3.5,-,N/A,,Mostly Cloudy,140,2012-09-30 23:38:00
6:42 PM,73.4,71.6,94,29.74,10.0,SE,3.5,-,N/A,,Mostly Cloudy,130,2012-09-30 23:42:00
6:50 PM,73.4,71.6,94,29.74,10.0,ESE,4.6,-,N/A,,Light Drizzle,120,2012-09-30 23:50:00
6:55 PM,73.2,72.3,97,29.74,10.0,ESE,4.6,-,0.06,,Light Drizzle,120,2012-09-30 23:55:00
7:01 PM,73.4,71.6,94,29.74,10.0,ESE,3.5,-,N/A,,Mostly Cloudy,110,2012-10-01 00:01:00
7:12 PM,73.4,71.6,94,29.74,10.0,Calm,Calm,-,N/A,,Light Drizzle,0,2012-10-01 00:12:00
7:55 PM,73.0,72.1,97,29.74,10.0,Calm,Calm,-,0.01,Rain,Light Rain,0,2012-10-01 00:55:00
8:05 PM,73.4,71.6,94,29.74,10.0,East,3.5,-,N/A,,Mostly Cloudy,80,2012-10-01 01:05:00
8:17 PM,73.4,71.6,94,29.75,10.0,NE,4.6,-,N/A,,Overcast,50,2012-10-01 01:17:00
8:30 PM,73.4,71.6,94,29.75,10.0,East,3.5,-,N/A,,Overcast,80,2012-10-01 01:30:00
8:34 PM,73.4,71.6,94,29.75,10.0,East,3.5,-,N/A,,Mostly Cloudy,90,2012-10-01 01:34:00
8:37 PM,73.4,71.6,94,29.75,10.0,East,3.5,-,N/A,,Mostly Cloudy,90,2012-10-01 01:37:00
8:45 PM,73.4,71.6,94,29.75,9.0,East,3.5,-,N/A,Rain,Light Rain,100,2012-10-01 01:45:00
8:55 PM,72.9,72.3,98,29.76,5.0,Calm,Calm,-,0.03,Rain,Light Rain,0,2012-10-01 01:55:00
9:05 PM,73.4,71.6,94,29.76,5.0,Calm,Calm,-,N/A,Rain,Light Rain,0,2012-10-01 02:05:00
9:14 PM,73.4,71.6,94,29.76,7.0,Calm,Calm,-,N/A,Rain,Light Rain,0,2012-10-01 02:14:00
9:19 PM,73.4,71.6,94,29.76,8.0,Calm,Calm,-,N/A,Rain,Light Rain,0,2012-10-01 02:19:00
9:22 PM,73.4,71.6,94,29.76,9.0,Calm,Calm,-,N/A,Rain,Light Rain,0,2012-10-01 02:22:00
9:25 PM,73.4,73.4,100,29.75,9.0,East,4.6,-,N/A,Rain,Light Rain,80,2012-10-01 02:25:00
9:27 PM,73.4,73.4,100,29.76,8.0,Calm,Calm,-,N/A,Rain,Light Rain,0,2012-10-01 02:27:00
9:34 PM,73.4,71.6,94,29.75,9.0,Calm,Calm,-,N/A,,Light Drizzle,0,2012-10-01 02:34:00
9:35 PM,73.4,71.6,94,29.75,9.0,Calm,Calm,-,N/A,,Light Drizzle,0,2012-10-01 02:35:00
9:41 PM,73.4,71.6,94,29.75,10.0,East,3.5,-,N/A,,Mostly Cloudy,100,2012-10-01 02:41:00
9:47 PM,73.4,71.6,94,29.75,10.0,SE,4.6,-,N/A,,Overcast,130,2012-10-01 02:47:00
9:55 PM,73.8,71.6,93,29.75,10.0,SE,4.6,-,0.02,,Overcast,140,2012-10-01 02:55:00
10:00 PM,73.4,71.6,94,29.75,10.0,ESE,3.5,-,N/A,,Mostly Cloudy,110,2012-10-01 03:00:00
10:03 PM,73.4,71.6,94,29.75,10.0,East,3.5,-,N/A,,Mostly Cloudy,100,2012-10-01 03:03:00
10:13 PM,73.4,71.6,94,29.75,10.0,East,3.5,-,N/A,,Mostly Cloudy,80,2012-10-01 03:13:00
10:55 PM,73.2,72.3,97,29.73,10.0,ESE,4.6,-,N/A,,Overcast,110,2012-10-01 03:55:00
11:21 PM,73.4,73.4,100,29.73,10.0,ESE,5.8,-,N/A,,Light Drizzle,120,2012-10-01 04:21:00
11:39 PM,73.4,73.4,100,29.71,10.0,ESE,6.9,-,N/A,,Partly Cloudy,120,2012-10-01 04:39:00
11:55 PM,73.6,72.7,97,29.71,10.0,SE,6.9,-,0.00,Rain,Light Rain,130,2012-10-01 04:55:00